[[{"header":{"parameterUnit":"m.s-1","parameterCategory":1,"la1":30.2991,"la2":30.254,"lo1":-89.0895,"lo2":-89.0444,"dy":0.0017,"dx":0.0017,"nx":28,"ny":28,"refTime":"2025-04-08T21:00:00:Z","depth":0,"parameterNumber":2,"parameterNumberName":"U-component_of_WINDS"},"data":[0,0,0,0,0,0,0,0,0,0,0,0,0,0,0,0,0,0,0,0,0,0,0,0,0,0,0,0,0,0,0,0,0,0,0,0,0,0,0,0,0,0,0,0,0,0,0,0,0,0,0,0,0,0,0,0,0,0,1.0071,1.0071,0,1.0107,1.0108,1.0108,1.0128,1.0128,1.0128,1.0128,1.0165,1.0165,1.0166,0,0,0,0,0,0,0,0,0,0,0,0,0,1.0017,1.0018,1.0071,1.0071,1.0072,1.0107,1.0108,1.0108,1.0128,1.0128,1.0128,1.0128,1.0164,1.0165,1.0166,0,0,0,0,0,0,0,0,0,0,0,0,0,1.0045,1.0018,1.0071,1.0086,1.0088,1.0107,1.0108,1.0108,1.0128,1.0128,1.0128,1.0128,1.0164,1.0165,1.0167,1.0173,0,0,1.0171,1.0171,0,0,0,0,0,0,0,0,1.0044,1.0047,1.0083,1.0085,1.0087,1.0113,1.0102,1.013,1.0128,1.0113,1.0128,1.0128,1.0147,1.015,1.0157,1.0175,1.0177,1.0171,1.0172,1.0172,1.0173,0,0,0,0,0,0,0,1.0042,1.0046,1.0085,1.0084,1.0086,1.009,1.0095,1.0107,1.0129,1.0114,1.0116,1.012,1.0148,1.0155,1.0158,1.0177,1.0171,1.0172,1.0173,1.0173,1.0204,1.0204,0,0,0,0,0,0,1.0037,1.0044,1.0084,1.0086,1.0065,1.0091,1.0096,1.0105,1.0129,1.0133,1.012,1.012,1.0153,1.0156,1.0159,1.0169,1.0172,1.0174,1.0174,1.0204,1.0204,1.0204,0,0,0,0,0,0,1.0036,1.0041,1.0082,1.0066,1.0071,1.0092,1.0102,1.0105,1.0112,1.0133,1.0137,1.0123,1.0153,1.0157,1.017,1.0171,1.0174,1.0175,1.0204,1.0204,1.0204,1.0189,0,0,0,0,0,0,1.0035,1.004,1.0043,1.0066,1.0072,1.0093,1.0102,1.0106,1.0115,1.0116,1.0137,1.0141,1.0153,1.0168,1.0171,1.0173,1.0177,1.0204,1.0204,1.0204,1.0189,1.0188,1.0187,0,0,0,0,0,1.0033,1.0037,1.0043,1.0048,1.0076,1.0093,1.0097,1.0111,1.0115,1.0118,1.0131,1.014,1.017,1.0169,1.0173,1.0175,1.0204,1.0204,1.0204,1.019,1.0189,1.0187,0,0,0,0,0,0,1.0014,1.004,1.0047,1.006,1.0074,1.0096,1.0101,1.011,1.0123,1.0124,1.0141,1.0146,1.0157,1.0167,1.0166,1.0183,1.0188,1.0189,1.0176,1.0175,1.0174,1.0171,1.0178,0,0,0,0,0,1.0011,1.0023,1.0045,1.0054,1.0061,1.0079,1.0087,1.0097,1.0113,1.0119,1.0133,1.0147,1.016,1.0168,1.0181,1.0191,1.0196,1.0194,1.0193,1.0192,1.0193,1.0199,1.0199,1.0204,1.0204,1.0204,0,0,1.0006,1.0022,1.0028,1.005,1.0063,1.0074,1.0084,1.0096,1.0104,1.012,1.0134,1.0145,1.0162,1.0173,1.0179,1.0182,1.0193,1.0192,1.0191,1.0192,1.0199,1.0199,1.0198,1.0204,1.0204,1.0204,0,0,1.0002,1.0015,1.0024,1.0036,1.0055,1.0067,1.0069,1.009,1.0099,1.0112,1.0125,1.0135,1.0156,1.0168,1.0177,1.0178,1.0187,1.0182,1.0176,1.0183,1.0182,1.0182,1.0182,1.0182,1.0182,1.0182,1.0182,0,0.9992,1.001,1.0027,1.0038,1.0047,1.0063,1.0072,1.0083,1.0105,1.0111,1.0114,1.0142,1.0154,1.0169,1.0169,1.0176,1.0179,1.0179,1.0181,1.0181,1.0181,1.0182,1.0182,1.0181,1.0181,1.0181,1.0181,0,0.9998,1.001,1.0015,1.0036,1.0046,1.0056,1.0074,1.0082,1.0092,1.0104,1.0117,1.0133,1.015,1.0154,1.0163,1.017,1.0172,1.0178,1.0183,1.018,1.018,1.0181,1.018,1.018,1.0181,1.0181,0,0,0.9982,1.0013,1.0015,1.0025,1.0047,1.0056,1.0067,1.0084,1.009,1.0105,1.0114,1.0132,1.0138,1.0148,1.0159,1.0165,1.0165,1.017,1.0171,1.0169,1.0174,1.0169,1.0169,1.0171,1.0171,1.0171,1.0172,0,0.9981,1.0002,1.0017,1.0031,1.0043,1.0058,1.0067,1.0082,1.0094,1.0105,1.0118,1.0131,1.0137,1.0143,1.015,1.0163,1.0166,1.0163,1.0179,1.018,1.0174,1.017,1.0164,1.0165,1.0173,1.0173,1.0173,0,0.9983,0.9997,1.0013,1.0034,1.004,1.0048,1.0064,1.0075,1.0092,1.01,1.0112,1.0123,1.0135,1.0139,1.0156,1.0154,1.0162,1.0169,1.017,1.0172,1.0176,1.0171,1.0166,1.0166,1.0174,1.0174,1.0174,0,0.997,0.9993,1.0006,1.0014,1.0039,1.0045,1.0055,1.0072,1.0081,1.0096,1.0102,1.0118,1.0126,1.0138,1.0153,1.0155,1.0169,1.0174,1.0176,1.0175,1.0177,1.0177,1.0173,1.0182,1.0182,1.0182,1.0182,0,0.9967,0.9976,1.0001,1.0008,1.0019,1.0036,1.0046,1.0058,1.0073,1.0083,1.0098,1.0107,1.0126,1.0138,1.015,1.0162,1.0166,1.0173,1.0176,1.0171,1.0171,1.0176,1.0177,1.0182,1.0182,1.0182,1.0182,0,0.9954,0.9971,0.9986,1.0009,1.0015,1.0021,1.0041,1.0049,1.0062,1.0075,1.0079,1.0099,1.0113,1.013,1.0149,1.0158,1.0169,1.0173,1.0163,1.0165,1.0166,1.0165,1.0165,1.0166,1.0175,1.0174,1.0174,0,0.9951,0.9958,0.9982,0.999,1.0001,1.0013,1.0023,1.0041,1.005,1.0071,1.0076,1.0092,1.0105,1.0128,1.0144,1.0159,1.0164,1.0163,1.0167,1.0162,1.0164,1.0164,1.0165,1.0162,1.0162,1.0162,1.0162,0,0.9944,0.9952,0.9965,0.9982,0.9993,1.0007,1.0021,1.0027,1.0048,1.0058,1.0073,1.0084,1.0104,1.012,1.0137,1.0148,1.0158,1.016,1.0162,1.0157,1.0151,1.0154,1.016,1.016,1.016,1.016,1.0161,1.0161,0.9936,0.9943,0.9961,0.9976,0.9989,1.0002,1.0011,1.0025,1.0038,1.0057,1.0066,1.0081,1.0099,1.0124,1.0134,1.0146,1.015,1.0151,1.0152,1.0152,1.0151,1.0149,1.015,1.015,1.015,1.015,1.015,0,0.9929,0.9942,0.9955,0.9975,0.9987,0.9996,1.0012,1.0021,1.0035,1.005,1.0063,1.0081,1.0096,1.0114,1.0131,1.0137,1.0142,1.0141,1.014,1.0143,1.0147,1.0144,1.0136,1.0136,1.0136,1.0136,1.0136,1.0136,0.9927,0.994,0.995,0.997,0.9982,0.9998,1.0006,1.0019,1.0031,1.0051,1.0064,1.0075,1.0092,1.011,1.0124,1.0129,1.0135,1.0132,1.0138,1.0141,1.0142,1.0144,1.0141,1.0133,1.0133,1.0133,1.0133,1.0133]},{"header":{"parameterUnit":"m.s-1","parameterCategory":1,"la1":30.2991,"la2":30.254,"lo1":-89.0895,"lo2":-89.0444,"dy":0.0017,"dx":0.0017,"nx":28,"ny":28,"refTime":"2025-04-08T21:00:00:Z","depth":0,"parameterNumber":3,"parameterNumberName":"V-component_of_WINDS"},"data":[0,0,0,0,0,0,0,0,0,0,0,0,0,0,0,0,0,0,0,0,0,0,0,0,0,0,0,0,0,0,0,0,0,0,0,0,0,0,0,0,0,0,0,0,0,0,0,0,0,0,0,0,0,0,0,0,0,0,-5.0073,-5.0075,0,-5.0289,-5.0292,-5.0294,-5.0249,-5.0245,-5.0241,-5.0237,-5.0457,-5.0466,-5.0476,0,0,0,0,0,0,0,0,0,0,0,0,0,-4.9619,-4.9628,-5.0073,-5.0075,-5.0078,-5.0289,-5.0292,-5.0295,-5.025,-5.0245,-5.024,-5.0236,-5.0454,-5.0465,-5.0476,0,0,0,0,0,0,0,0,0,0,0,0,0,-4.9824,-4.963,-5.0072,-5.0081,-5.0084,-5.0288,-5.0292,-5.0296,-5.0251,-5.0245,-5.0239,-5.0233,-5.045,-5.0464,-5.0478,-5.0686,0,0,-5.0522,-5.0528,0,0,0,0,0,0,0,0,-4.9812,-4.984,-5.0077,-5.0081,-5.0085,-5.0236,-5.0212,-5.0426,-5.0252,-5.0188,-5.0237,-5.023,-5.0388,-5.0407,-5.0461,-5.0696,-5.0706,-5.0523,-5.0532,-5.0538,-5.0542,0,0,0,0,0,0,0,-4.9798,-4.9831,-5.0158,-5.0081,-5.0085,-5.0074,-5.0096,-5.0253,-5.0319,-5.0193,-5.019,-5.0216,-5.0389,-5.0447,-5.0466,-5.0709,-5.0523,-5.0535,-5.0544,-5.055,-5.1127,-5.1134,0,0,0,0,0,0,-4.9781,-4.9819,-5.0151,-5.0165,-4.9931,-5.0087,-5.0112,-5.0193,-5.0317,-5.033,-5.0221,-5.0213,-5.0426,-5.0449,-5.0473,-5.0726,-5.0538,-5.0551,-5.0559,-5.1121,-5.1129,-5.1136,0,0,0,0,0,0,-4.9771,-4.9811,-5.0143,-4.9992,-5.0033,-5.0101,-5.0193,-5.0201,-5.0259,-5.0338,-5.035,-5.0269,-5.0422,-5.0453,-5.0634,-5.0733,-5.0558,-5.0571,-5.1113,-5.1123,-5.1132,-5.1233,0,0,0,0,0,0,-4.9758,-4.9808,-4.9888,-4.9994,-5.0041,-5.0301,-5.0199,-5.0209,-5.0284,-5.0276,-5.0386,-5.0398,-5.0419,-5.0613,-5.0648,-5.075,-5.0582,-5.1104,-5.1117,-5.1129,-5.1221,-5.1245,-5.1266,0,0,0,0,0,-4.9742,-4.9907,-4.9892,-4.9932,-5.0143,-5.0306,-5.0334,-5.0355,-5.0292,-5.0373,-5.0424,-5.0395,-5.0716,-5.0632,-5.0671,-5.0778,-5.1098,-5.1114,-5.1128,-5.1211,-5.1241,-5.1266,0,0,0,0,0,0,-4.981,-4.9921,-4.9906,-5.0109,-5.0199,-5.0299,-5.0401,-5.0385,-5.0494,-5.0482,-5.0503,-5.0529,-5.0713,-5.0763,-5.0667,-5.0987,-5.0898,-5.0922,-5.0948,-5.0976,-5.0998,-5.0983,-5.0594,0,0,0,0,0,-4.9849,-4.9973,-5.0062,-5.0233,-5.0279,-5.0333,-5.0405,-5.0414,-5.0507,-5.0545,-5.0609,-5.07,-5.0822,-5.0901,-5.1018,-5.1228,-5.1252,-5.1321,-5.1343,-5.1361,-5.1382,-5.1498,-5.1531,-5.1186,-5.1186,-5.1185,0,0,-4.9929,-5.0005,-5.0082,-5.0249,-5.0319,-5.0448,-5.0365,-5.0504,-5.0599,-5.0565,-5.0741,-5.0792,-5.0895,-5.1092,-5.1181,-5.1139,-5.1482,-5.1381,-5.1394,-5.1406,-5.1517,-5.155,-5.1579,-5.1196,-5.1194,-5.1193,0,0,-5.0143,-5.0212,-5.0363,-5.0436,-5.0544,-5.0579,-5.0615,-5.0718,-5.0751,-5.0927,-5.0905,-5.1018,-5.1227,-5.1302,-5.1367,-5.161,-5.1587,-5.1647,-5.1765,-5.1878,-5.1905,-5.1929,-5.2017,-5.2048,-5.1667,-5.1667,-5.1667,0,-5.023,-5.0423,-5.0442,-5.0585,-5.0659,-5.0635,-5.0788,-5.0857,-5.0998,-5.105,-5.1,-5.1263,-5.133,-5.1545,-5.1605,-5.1658,-5.17,-5.1635,-5.1899,-5.1924,-5.1947,-5.2031,-5.2064,-5.1674,-5.1673,-5.1673,-5.1672,0,-5.0525,-5.0659,-5.0768,-5.0905,-5.0992,-5.1138,-5.118,-5.1265,-5.1267,-5.1306,-5.1487,-5.1567,-5.17,-5.1751,-5.1753,-5.1967,-5.1938,-5.1894,-5.1805,-5.1986,-5.2066,-5.2098,-5.1684,-5.1681,-5.1679,-5.1678,0,0,-5.0787,-5.0935,-5.0975,-5.1037,-5.1155,-5.1259,-5.1405,-5.1536,-5.1609,-5.1706,-5.1829,-5.2007,-5.1967,-5.2041,-5.2052,-5.2151,-5.234,-5.2095,-5.2098,-5.2139,-5.2582,-5.2615,-5.2652,-5.2325,-5.2331,-5.2336,-5.2574,0,-5.1013,-5.1271,-5.1293,-5.1525,-5.165,-5.1629,-5.1756,-5.1842,-5.1883,-5.1995,-5.2039,-5.2166,-5.2103,-5.2148,-5.2245,-5.2296,-5.2429,-5.2279,-5.244,-5.2446,-5.2417,-5.2694,-5.273,-5.295,-5.2605,-5.261,-5.2614,0,-5.1311,-5.1419,-5.1663,-5.1765,-5.1818,-5.1932,-5.2054,-5.2161,-5.2258,-5.2281,-5.2365,-5.2362,-5.2511,-5.2416,-5.2623,-5.2521,-5.2587,-5.2623,-5.2632,-5.2649,-5.2542,-5.272,-5.3021,-5.3054,-5.2663,-5.2659,-5.2655,0,-5.148,-5.1686,-5.1859,-5.1913,-5.2036,-5.2117,-5.2171,-5.2262,-5.234,-5.2447,-5.2497,-5.2619,-5.2687,-5.2781,-5.2811,-5.2739,-5.3018,-5.2924,-5.3041,-5.3041,-5.3102,-5.3098,-5.3419,-5.3143,-5.3142,-5.3141,-5.3141,0,-5.173,-5.1881,-5.1937,-5.2044,-5.2212,-5.2236,-5.2402,-5.2452,-5.2534,-5.265,-5.2639,-5.2748,-5.2781,-5.2895,-5.292,-5.3088,-5.3118,-5.3141,-5.3146,-5.3143,-5.314,-5.3188,-5.3174,-5.315,-5.3148,-5.3147,-5.3145,0,-5.1948,-5.1991,-5.2179,-5.2281,-5.2309,-5.2429,-5.2516,-5.2619,-5.2657,-5.2805,-5.2841,-5.2902,-5.3037,-5.3076,-5.3237,-5.3253,-5.3452,-5.3442,-5.342,-5.342,-5.3535,-5.3525,-5.39,-5.3951,-5.3639,-5.3642,-5.3644,0,-5.2106,-5.2221,-5.2335,-5.2413,-5.2471,-5.2596,-5.2676,-5.2704,-5.2787,-5.2907,-5.2996,-5.3129,-5.3237,-5.3453,-5.3512,-5.3635,-5.3629,-5.3752,-5.3648,-5.3642,-5.3633,-5.3626,-5.3639,-5.3772,-5.3776,-5.3778,-5.378,0,-5.2382,-5.2398,-5.2513,-5.2637,-5.2733,-5.2832,-5.2926,-5.299,-5.3032,-5.3126,-5.3264,-5.3348,-5.3514,-5.3646,-5.3772,-5.3827,-5.3812,-5.3813,-5.3847,-5.3846,-5.3829,-5.3841,-5.3475,-5.3804,-5.3802,-5.38,-5.3799,-5.3798,-5.2575,-5.2678,-5.2775,-5.2904,-5.2979,-5.3068,-5.317,-5.3222,-5.3339,-5.3477,-5.3485,-5.3636,-5.373,-5.3897,-5.3959,-5.4077,-5.4041,-5.4089,-5.4102,-5.4114,-5.4124,-5.3809,-5.41,-5.4099,-5.4098,-5.4098,-5.4097,0,-5.2852,-5.2913,-5.3032,-5.3166,-5.3268,-5.3245,-5.3349,-5.3436,-5.3568,-5.3658,-5.3765,-5.3925,-5.4054,-5.4123,-5.4251,-5.4332,-5.4328,-5.4365,-5.436,-5.4373,-5.4149,-5.4107,-5.4366,-5.4366,-5.4366,-5.4366,-5.4366,-5.4365,-5.3008,-5.3181,-5.3209,-5.3419,-5.3479,-5.3627,-5.3688,-5.377,-5.3843,-5.4022,-5.4129,-5.4173,-5.4256,-5.439,-5.4507,-5.4524,-5.4572,-5.4614,-5.4627,-5.4416,-5.4389,-5.4362,-5.4324,-5.4624,-5.4624,-5.4841,-5.4843,-5.4845]}]]